Time,TemperatureF,DewpointF,PressureIn,WindDirection,WindDirectionDegrees,WindSpeedMPH,WindSpeedGustMPH,Humidity,HourlyPrecipIn,Conditions,Clouds,dailyrainin,SoftwareType,DateUTC
2013-07-17 07:00:00,67.7,62.6,30.17,North,0,0.0,0.0,84,0.00,,,0.00,WUHU216HW,2013-07-17 14:00:00,
2013-07-17 07:01:00,67.9,62.8,30.17,North,0,0.0,0.0,84,0.00,,,0.00,WUHU216HW,2013-07-17 14:01:00,
2013-07-17 07:06:00,68.2,62.6,30.17,North,0,0.0,0.0,82,0.00,,,0.00,WUHU216HW,2013-07-17 14:06:00,
2013-07-17 07:11:00,68.6,62.6,30.18,North,0,0.0,0.0,81,0.00,,,0.00,WUHU216HW,2013-07-17 14:11:00,
2013-07-17 07:16:00,68.8,62.4,30.18,North,0,0.0,0.0,80,0.00,,,0.00,WUHU216HW,2013-07-17 14:16:00,
2013-07-17 07:21:00,68.8,62.0,30.18,North,0,0.0,0.0,79,0.00,,,0.00,WUHU216HW,2013-07-17 14:21:00,
2013-07-17 07:26:00,68.4,62.1,30.18,North,0,0.0,0.0,80,0.00,,,0.00,WUHU216HW,2013-07-17 14:26:00,
2013-07-17 07:31:00,68.4,61.7,30.18,North,0,0.0,0.0,79,0.00,,,0.00,WUHU216HW,2013-07-17 14:31:00,
2013-07-17 07:36:00,68.4,61.7,30.18,North,0,0.0,0.0,79,0.00,,,0.00,WUHU216HW,2013-07-17 14:36:00,
2013-07-17 07:41:00,68.8,62.0,30.18,North,0,0.0,0.0,79,0.00,,,0.00,WUHU216HW,2013-07-17 14:41:00,
2013-07-17 07:46:00,69.1,61.9,30.18,North,0,0.0,0.0,78,0.00,,,0.00,WUHU216HW,2013-07-17 14:46:00,
2013-07-17 07:51:00,69.5,61.9,30.18,North,0,0.0,0.0,77,0.00,,,0.00,WUHU216HW,2013-07-17 14:51:00,
2013-07-17 07:56:00,69.5,61.9,30.18,North,0,0.0,0.0,77,0.00,,,0.00,WUHU216HW,2013-07-17 14:56:00,
2013-07-17 08:01:00,69.8,62.2,30.18,North,0,0.0,0.0,77,0.00,,,0.00,WUHU216HW,2013-07-17 15:01:00,
2013-07-17 08:06:00,70.2,62.2,30.18,North,0,0.0,0.0,76,0.00,,,0.00,WUHU216HW,2013-07-17 15:06:00,
2013-07-17 08:11:00,70.6,62.2,30.18,North,0,0.0,0.0,75,0.00,,,0.00,WUHU216HW,2013-07-17 15:11:00,
2013-07-17 08:16:00,70.6,61.8,30.18,North,0,0.0,0.0,74,0.00,,,0.00,WUHU216HW,2013-07-17 15:16:00,
2013-07-17 08:21:00,70.6,61.8,30.18,North,0,0.0,0.0,74,0.00,,,0.00,WUHU216HW,2013-07-17 15:21:00,
2013-07-17 08:26:00,70.2,60.3,30.18,North,0,0.0,0.0,71,0.00,,,0.00,WUHU216HW,2013-07-17 15:26:00,
2013-07-17 08:31:00,70.2,60.3,30.18,North,0,0.0,0.0,71,0.00,,,0.00,WUHU216HW,2013-07-17 15:31:00,
2013-07-17 08:36:00,70.4,60.8,30.18,North,0,0.0,0.0,72,0.00,,,0.00,WUHU216HW,2013-07-17 15:36:00,
2013-07-17 08:41:00,70.7,60.8,30.18,North,0,0.0,0.0,71,0.00,,,0.00,WUHU216HW,2013-07-17 15:41:00,
2013-07-17 08:46:00,71.3,61.0,30.17,North,0,0.0,0.0,70,0.00,,,0.00,WUHU216HW,2013-07-17 15:46:00,
2013-07-17 08:51:00,71.6,61.4,30.18,North,0,0.0,0.0,70,0.00,,,0.00,WUHU216HW,2013-07-17 15:51:00,
2013-07-17 08:56:00,71.6,61.4,30.17,North,0,0.0,0.0,70,0.00,,,0.00,WUHU216HW,2013-07-17 15:56:00,
2013-07-17 09:01:00,72.2,61.5,30.17,North,0,0.0,0.0,69,0.00,,,0.00,WUHU216HW,2013-07-17 16:01:00,
2013-07-17 09:06:00,72.4,61.2,30.18,North,0,0.0,0.0,68,0.00,,,0.00,WUHU216HW,2013-07-17 16:06:00,
2013-07-17 09:11:00,72.5,60.9,30.18,North,0,0.0,0.0,67,0.00,,,0.00,WUHU216HW,2013-07-17 16:11:00,
2013-07-17 09:16:00,72.5,60.9,30.18,North,0,0.0,0.0,67,0.00,,,0.00,WUHU216HW,2013-07-17 16:16:00,
2013-07-17 09:21:00,72.5,60.9,30.17,North,0,0.0,0.0,67,0.00,,,0.00,WUHU216HW,2013-07-17 16:21:00,
2013-07-17 09:26:00,72.4,60.8,30.17,North,0,0.0,0.0,67,0.00,,,0.00,WUHU216HW,2013-07-17 16:26:00,
2013-07-17 09:31:00,72.7,61.1,30.17,North,0,0.0,0.0,67,0.00,,,0.00,WUHU216HW,2013-07-17 16:31:00,
2013-07-17 09:36:00,73.1,61.5,30.17,North,0,0.0,0.0,67,0.00,,,0.00,WUHU216HW,2013-07-17 16:36:00,
2013-07-17 09:41:00,73.1,61.0,30.17,North,0,0.0,0.0,66,0.00,,,0.00,WUHU216HW,2013-07-17 16:41:00,
2013-07-17 09:46:00,73.3,61.7,30.17,North,0,0.0,0.0,67,0.00,,,0.00,WUHU216HW,2013-07-17 16:46:00,
2013-07-17 09:51:00,73.4,61.4,30.17,North,0,0.0,0.0,66,0.00,,,0.00,WUHU216HW,2013-07-17 16:51:00,
2013-07-17 09:56:00,73.4,60.5,30.17,North,0,0.0,0.0,64,0.00,,,0.00,WUHU216HW,2013-07-17 16:56:00,
2013-07-17 10:01:00,73.8,61.3,30.17,North,0,0.0,0.0,65,0.00,,,0.00,WUHU216HW,2013-07-17 17:01:00,
2013-07-17 10:06:00,74.0,60.6,30.17,North,0,0.0,0.0,63,0.00,,,0.00,WUHU216HW,2013-07-17 17:06:00,
2013-07-17 10:11:00,74.2,60.8,30.17,North,0,0.0,0.0,63,0.00,,,0.00,WUHU216HW,2013-07-17 17:11:00,
2013-07-17 10:16:00,74.7,61.3,30.17,North,0,0.0,0.0,63,0.00,,,0.00,WUHU216HW,2013-07-17 17:16:00,
2013-07-17 10:21:00,75.1,61.2,30.17,North,0,0.0,0.0,62,0.00,,,0.00,WUHU216HW,2013-07-17 17:21:00,
2013-07-17 10:26:00,75.2,60.9,30.17,North,0,0.0,0.0,61,0.00,,,0.00,WUHU216HW,2013-07-17 17:26:00,
2013-07-17 10:31:00,75.4,61.1,30.17,North,0,0.0,0.0,61,0.00,,,0.00,WUHU216HW,2013-07-17 17:31:00,
2013-07-17 10:36:00,75.6,61.2,30.17,North,0,0.0,0.0,61,0.00,,,0.00,WUHU216HW,2013-07-17 17:36:00,
2013-07-17 10:41:00,75.8,60.9,30.17,North,0,0.0,0.0,60,0.00,,,0.00,WUHU216HW,2013-07-17 17:41:00,
2013-07-17 10:46:00,76.0,60.7,30.17,North,0,0.0,0.0,59,0.00,,,0.00,WUHU216HW,2013-07-17 17:46:00,
2013-07-17 10:51:00,76.1,60.3,30.17,North,0,0.0,0.0,58,0.00,,,0.00,WUHU216HW,2013-07-17 17:51:00,
2013-07-17 10:56:00,76.5,61.7,30.17,North,0,0.0,0.0,60,0.00,,,0.00,WUHU216HW,2013-07-17 17:56:00,
2013-07-17 11:01:00,76.7,61.3,30.17,North,0,0.0,0.0,59,0.00,,,0.00,WUHU216HW,2013-07-17 18:01:00,
2013-07-17 11:06:00,76.7,60.8,30.17,North,0,0.0,0.0,58,0.00,,,0.00,WUHU216HW,2013-07-17 18:06:00,
2013-07-17 11:11:00,76.5,60.6,30.17,North,0,0.0,0.0,58,0.00,,,0.00,WUHU216HW,2013-07-17 18:11:00,
2013-07-17 11:16:00,76.7,60.8,30.17,North,0,0.0,0.0,58,0.00,,,0.00,WUHU216HW,2013-07-17 18:16:00,
2013-07-17 11:21:00,77.4,61.5,30.16,North,0,0.0,0.0,58,0.00,,,0.00,WUHU216HW,2013-07-17 18:21:00,
2013-07-17 11:26:00,77.8,60.8,30.16,North,0,0.0,0.0,56,0.00,,,0.00,WUHU216HW,2013-07-17 18:26:00,
2013-07-17 11:31:00,77.8,60.3,30.16,North,0,0.0,0.0,55,0.00,,,0.00,WUHU216HW,2013-07-17 18:31:00,
2013-07-17 11:36:00,77.8,59.8,30.16,North,0,0.0,0.0,54,0.00,,,0.00,WUHU216HW,2013-07-17 18:36:00,
2013-07-17 11:41:00,77.8,58.8,30.16,North,0,0.0,0.0,52,0.00,,,0.00,WUHU216HW,2013-07-17 18:41:00,
2013-07-17 11:46:00,78.1,60.1,30.16,North,0,0.0,0.0,54,0.00,,,0.00,WUHU216HW,2013-07-17 18:46:00,
2013-07-17 11:51:00,78.5,60.0,30.16,North,0,0.0,0.0,53,0.00,,,0.00,WUHU216HW,2013-07-17 18:51:00,
2013-07-17 11:56:00,79.0,60.9,30.16,North,0,0.0,0.0,54,0.00,,,0.00,WUHU216HW,2013-07-17 18:56:00,
2013-07-17 12:01:00,79.6,60.9,30.15,North,0,0.0,0.0,53,0.00,,,0.00,WUHU216HW,2013-07-17 19:01:00,
2013-07-17 12:06:00,80.1,60.8,30.15,North,0,0.0,0.0,52,0.00,,,0.00,WUHU216HW,2013-07-17 19:06:00,
2013-07-17 12:11:00,80.3,61.0,30.15,North,0,0.0,0.0,52,0.00,,,0.00,WUHU216HW,2013-07-17 19:11:00,
2013-07-17 12:16:00,80.1,59.2,30.15,North,0,0.0,0.0,49,0.00,,,0.00,WUHU216HW,2013-07-17 19:16:00,
2013-07-17 12:21:00,79.9,60.2,30.15,North,0,0.0,0.0,51,0.00,,,0.00,WUHU216HW,2013-07-17 19:21:00,
2013-07-17 12:26:00,80.5,59.5,30.15,North,0,0.0,0.0,49,0.00,,,0.00,WUHU216HW,2013-07-17 19:26:00,
2013-07-17 12:31:00,80.3,59.4,30.15,North,0,0.0,0.0,49,0.00,,,0.00,WUHU216HW,2013-07-17 19:31:00,
2013-07-17 12:36:00,80.5,59.0,30.15,North,0,0.0,0.0,48,0.00,,,0.00,WUHU216HW,2013-07-17 19:36:00,
2013-07-17 12:41:00,80.6,59.7,30.15,North,0,0.0,0.0,49,0.00,,,0.00,WUHU216HW,2013-07-17 19:41:00,
2013-07-17 12:46:00,80.5,59.5,30.15,North,0,0.0,0.0,49,0.00,,,0.00,WUHU216HW,2013-07-17 19:46:00,
2013-07-17 12:51:00,80.3,59.4,30.15,North,0,0.0,0.0,49,0.00,,,0.00,WUHU216HW,2013-07-17 19:51:00,
2013-07-17 12:56:00,81.0,60.7,30.15,North,0,0.0,0.0,50,0.00,,,0.00,WUHU216HW,2013-07-17 19:56:00,
2013-07-17 13:01:00,81.7,60.7,30.14,North,0,0.0,0.0,49,0.00,,,0.00,WUHU216HW,2013-07-17 20:01:00,
2013-07-17 13:06:00,81.9,60.2,30.14,North,0,0.0,0.0,48,0.00,,,0.00,WUHU216HW,2013-07-17 20:06:00,
2013-07-17 13:11:00,82.1,60.4,30.14,North,0,0.0,0.0,48,0.00,,,0.00,WUHU216HW,2013-07-17 20:11:00,
2013-07-17 13:16:00,82.4,60.1,30.14,North,0,0.0,0.0,47,0.00,,,0.00,WUHU216HW,2013-07-17 20:16:00,
2013-07-17 13:21:00,82.6,60.8,30.14,North,0,0.0,0.0,48,0.00,,,0.00,WUHU216HW,2013-07-17 20:21:00,
2013-07-17 13:26:00,83.7,61.9,30.14,North,0,0.0,0.0,48,0.00,,,0.00,WUHU216HW,2013-07-17 20:26:00,
2013-07-17 13:31:00,83.9,60.8,30.14,North,0,0.0,0.0,46,0.00,,,0.00,WUHU216HW,2013-07-17 20:31:00,
2013-07-17 13:36:00,83.0,60.0,30.14,North,0,0.0,0.0,46,0.00,,,0.00,WUHU216HW,2013-07-17 20:36:00,
2013-07-17 13:41:00,82.6,59.7,30.13,North,0,0.0,0.0,46,0.00,,,0.00,WUHU216HW,2013-07-17 20:41:00,
2013-07-17 13:46:00,83.2,60.8,30.13,North,0,0.0,0.0,47,0.00,,,0.00,WUHU216HW,2013-07-17 20:46:00,
2013-07-17 13:51:00,83.3,60.3,30.13,North,0,0.0,0.0,46,0.00,,,0.00,WUHU216HW,2013-07-17 20:51:00,
2013-07-17 13:56:00,83.9,60.8,30.13,North,0,0.0,0.0,46,0.00,,,0.00,WUHU216HW,2013-07-17 20:56:00,
2013-07-17 14:01:00,84.1,59.8,30.13,North,0,0.0,0.0,44,0.00,,,0.00,WUHU216HW,2013-07-17 21:01:00,
2013-07-17 14:06:00,84.1,59.8,30.13,North,0,0.0,0.0,44,0.00,,,0.00,WUHU216HW,2013-07-17 21:06:00,
2013-07-17 14:11:00,83.5,59.9,30.13,North,0,0.0,0.0,45,0.00,,,0.00,WUHU216HW,2013-07-17 21:11:00,
2013-07-17 14:16:00,83.7,58.8,30.12,North,0,0.0,0.0,43,0.00,,,0.00,WUHU216HW,2013-07-17 21:16:00,
2013-07-17 14:22:00,84.1,59.8,30.12,North,0,0.0,0.0,44,0.00,,,0.00,WUHU216HW,2013-07-17 21:22:00,
2013-07-17 14:27:00,84.1,59.8,30.12,North,0,0.0,0.0,44,0.00,,,0.00,WUHU216HW,2013-07-17 21:27:00,
2013-07-17 14:32:00,84.2,59.3,30.12,North,0,0.0,0.0,43,0.00,,,0.00,WUHU216HW,2013-07-17 21:32:00,
2013-07-17 14:37:00,83.9,59.0,30.12,North,0,0.0,0.0,43,0.00,,,0.00,WUHU216HW,2013-07-17 21:37:00,
2013-07-17 14:42:00,84.4,60.1,30.12,North,0,0.0,0.0,44,0.00,,,0.00,WUHU216HW,2013-07-17 21:42:00,
2013-07-17 14:47:00,83.9,59.0,30.12,North,0,0.0,0.0,43,0.00,,,0.00,WUHU216HW,2013-07-17 21:47:00,
2013-07-17 14:52:00,83.7,59.4,30.12,North,0,0.0,0.0,44,0.00,,,0.00,WUHU216HW,2013-07-17 21:52:00,
2013-07-17 14:57:00,83.9,59.6,30.11,North,0,0.0,0.0,44,0.00,,,0.00,WUHU216HW,2013-07-17 21:57:00,
2013-07-17 15:02:00,83.9,57.7,30.11,North,0,0.0,0.0,41,0.00,,,0.00,WUHU216HW,2013-07-17 22:02:00,
2013-07-17 15:07:00,83.5,57.4,30.11,North,0,0.0,0.0,41,0.00,,,0.00,WUHU216HW,2013-07-17 22:07:00,
2013-07-17 15:12:00,83.5,58.1,30.11,North,0,0.0,0.0,42,0.00,,,0.00,WUHU216HW,2013-07-17 22:12:00,
2013-07-17 15:17:00,83.5,57.4,30.10,North,0,0.0,0.0,41,0.00,,,0.00,WUHU216HW,2013-07-17 22:17:00,
2013-07-17 15:22:00,83.7,58.1,30.10,North,0,0.0,0.0,42,0.00,,,0.00,WUHU216HW,2013-07-17 22:22:00,
2013-07-17 15:27:00,84.4,58.9,30.10,North,0,0.0,0.0,42,0.00,,,0.00,WUHU216HW,2013-07-17 22:27:00,
2013-07-17 15:32:00,85.5,59.2,30.09,North,0,0.0,0.0,41,0.00,,,0.00,WUHU216HW,2013-07-17 22:32:00,
2013-07-17 15:37:00,85.0,58.1,30.09,North,0,0.0,0.0,40,0.00,,,0.00,WUHU216HW,2013-07-17 22:37:00,
2013-07-17 15:42:00,85.1,58.2,30.09,North,0,0.0,0.0,40,0.00,,,0.00,WUHU216HW,2013-07-17 22:42:00,
2013-07-17 15:47:00,84.6,57.8,30.09,North,0,0.0,0.0,40,0.00,,,0.00,WUHU216HW,2013-07-17 22:47:00,
2013-07-17 15:52:00,85.1,58.9,30.09,North,0,0.0,0.0,41,0.00,,,0.00,WUHU216HW,2013-07-17 22:52:00,
2013-07-17 15:57:00,86.4,60.0,30.09,North,0,0.0,0.0,41,0.00,,,0.00,WUHU216HW,2013-07-17 22:57:00,
2013-07-17 16:02:00,86.2,57.6,30.09,North,0,0.0,0.0,38,0.00,,,0.00,WUHU216HW,2013-07-17 23:02:00,
2013-07-17 16:08:00,85.0,57.2,30.09,North,0,0.0,0.0,39,0.00,,,0.00,WUHU216HW,2013-07-17 23:08:00,
2013-07-17 16:13:00,83.9,56.4,30.09,North,0,0.0,0.0,39,0.00,,,0.00,WUHU216HW,2013-07-17 23:13:00,
2013-07-17 16:18:00,83.9,57.1,30.09,North,0,0.0,0.0,40,0.00,,,0.00,WUHU216HW,2013-07-17 23:18:00,
2013-07-17 16:23:00,84.4,57.6,30.08,North,0,0.0,0.0,40,0.00,,,0.00,WUHU216HW,2013-07-17 23:23:00,
2013-07-17 16:28:00,85.0,57.2,30.08,North,0,0.0,0.0,39,0.00,,,0.00,WUHU216HW,2013-07-17 23:28:00,
2013-07-17 16:33:00,85.0,57.2,30.08,North,0,0.0,0.0,39,0.00,,,0.00,WUHU216HW,2013-07-17 23:33:00,
2013-07-17 16:38:00,84.8,57.2,30.08,North,0,0.0,0.0,39,0.00,,,0.00,WUHU216HW,2013-07-17 23:38:00,
2013-07-17 16:43:00,84.8,57.2,30.08,North,0,0.0,0.0,39,0.00,,,0.00,WUHU216HW,2013-07-17 23:43:00,
2013-07-17 16:48:00,85.1,58.2,30.08,North,0,0.0,0.0,40,0.00,,,0.00,WUHU216HW,2013-07-17 23:48:00,
2013-07-17 16:53:00,85.0,57.2,30.08,North,0,0.0,0.0,39,0.00,,,0.00,WUHU216HW,2013-07-17 23:53:00,
2013-07-17 16:58:00,84.6,57.0,30.08,North,0,0.0,0.0,39,0.00,,,0.00,WUHU216HW,2013-07-17 23:58:00,
2013-07-17 17:03:00,84.6,57.8,30.08,North,0,0.0,0.0,40,0.00,,,0.00,WUHU216HW,2013-07-18 00:03:00,
2013-07-17 17:08:00,85.7,58.0,30.08,North,0,0.0,0.0,39,0.00,,,0.00,WUHU216HW,2013-07-18 00:08:00,
2013-07-17 17:13:00,86.0,55.1,30.08,North,0,0.0,0.0,35,0.00,,,0.00,WUHU216HW,2013-07-18 00:13:00,
2013-07-17 17:18:00,87.3,60.2,30.08,North,0,0.0,0.0,40,0.00,,,0.00,WUHU216HW,2013-07-18 00:18:00,
2013-07-17 17:23:00,90.4,61.2,30.08,North,0,0.0,0.0,38,0.00,,,0.00,WUHU216HW,2013-07-18 00:23:00,
2013-07-17 17:28:00,93.1,60.3,30.08,North,0,0.0,0.0,34,0.00,,,0.00,WUHU216HW,2013-07-18 00:28:00,
2013-07-17 17:33:00,93.6,60.9,30.09,North,0,0.0,0.0,34,0.00,,,0.00,WUHU216HW,2013-07-18 00:33:00,
2013-07-17 17:38:00,92.5,59.9,30.08,North,0,0.0,0.0,34,0.00,,,0.00,WUHU216HW,2013-07-18 00:38:00,
2013-07-17 17:43:00,92.5,59.9,30.09,North,0,0.0,0.0,34,0.00,,,0.00,WUHU216HW,2013-07-18 00:43:00,
2013-07-17 17:48:00,94.7,60.9,30.09,North,0,0.0,0.0,33,0.00,,,0.00,WUHU216HW,2013-07-18 00:48:00,
2013-07-17 17:53:00,96.3,60.7,30.09,North,0,0.0,0.0,31,0.00,,,0.00,WUHU216HW,2013-07-18 00:53:00,
2013-07-17 17:58:00,97.2,60.7,30.09,North,0,0.0,0.0,30,0.00,,,0.00,WUHU216HW,2013-07-18 00:58:00,
2013-07-17 18:03:00,94.3,58.2,30.09,North,0,0.0,0.0,30,0.00,,,0.00,WUHU216HW,2013-07-18 01:03:00,
2013-07-17 18:08:00,94.7,59.3,30.09,North,0,0.0,0.0,31,0.00,,,0.00,WUHU216HW,2013-07-18 01:08:00,
2013-07-17 18:13:00,94.3,58.2,30.09,North,0,0.0,0.0,30,0.00,,,0.00,WUHU216HW,2013-07-18 01:13:00,
2013-07-17 18:18:00,93.4,57.4,30.09,North,0,0.0,0.0,30,0.00,,,0.00,WUHU216HW,2013-07-18 01:18:00,
2013-07-17 18:23:00,93.4,56.4,30.10,North,0,0.0,0.0,29,0.00,,,0.00,WUHU216HW,2013-07-18 01:23:00,
2013-07-17 18:28:00,91.6,56.7,30.10,North,0,0.0,0.0,31,0.00,,,0.00,WUHU216HW,2013-07-18 01:28:00,
2013-07-17 18:33:00,89.5,56.4,30.10,North,0,0.0,0.0,33,0.00,,,0.00,WUHU216HW,2013-07-18 01:33:00,
2013-07-17 18:38:00,87.7,54.8,30.10,North,0,0.0,0.0,33,0.00,,,0.00,WUHU216HW,2013-07-18 01:38:00,
2013-07-17 18:43:00,86.8,54.9,30.10,North,0,0.0,0.0,34,0.00,,,0.00,WUHU216HW,2013-07-18 01:43:00,
2013-07-17 18:48:00,85.7,54.7,30.10,North,0,0.0,0.0,35,0.00,,,0.00,WUHU216HW,2013-07-18 01:48:00,
2013-07-17 18:53:00,84.1,55.7,30.10,North,0,0.0,0.0,38,0.00,,,0.00,WUHU216HW,2013-07-18 01:53:00,
2013-07-17 18:58:00,83.2,55.6,30.11,North,0,0.0,0.0,39,0.00,,,0.00,WUHU216HW,2013-07-18 01:58:00,
2013-07-17 19:03:00,81.9,54.6,30.11,North,0,0.0,0.0,39,0.00,,,0.00,WUHU216HW,2013-07-18 02:03:00,
2013-07-17 19:08:00,81.0,54.6,30.11,North,0,0.0,0.0,40,0.00,,,0.00,WUHU216HW,2013-07-18 02:08:00,
2013-07-17 19:13:00,80.3,53.8,30.10,North,0,0.0,0.0,40,0.00,,,0.00,WUHU216HW,2013-07-18 02:13:00,
2013-07-17 19:18:00,79.7,54.0,30.11,North,0,0.0,0.0,41,0.00,,,0.00,WUHU216HW,2013-07-18 02:18:00,
2013-07-17 19:23:00,78.8,55.6,30.13,North,0,0.0,0.0,45,0.00,,,0.00,WUHU216HW,2013-07-18 02:23:00,
2013-07-17 19:28:00,77.2,56.6,30.13,North,0,0.0,0.0,49,0.00,,,0.00,WUHU216HW,2013-07-18 02:28:00,
2013-07-17 19:33:00,76.3,56.9,30.12,North,0,0.0,0.0,51,0.00,,,0.00,WUHU216HW,2013-07-18 02:33:00,
2013-07-17 19:38:00,75.4,56.6,30.12,North,0,0.0,0.0,52,0.00,,,0.00,WUHU216HW,2013-07-18 02:38:00,
2013-07-17 19:43:00,74.9,56.6,30.12,North,0,0.0,0.0,53,0.00,,,0.00,WUHU216HW,2013-07-18 02:43:00,
2013-07-17 19:48:00,74.3,56.5,30.13,North,0,0.0,0.0,54,0.00,,,0.00,WUHU216HW,2013-07-18 02:48:00,
2013-07-17 19:54:00,73.8,57.5,30.13,North,0,0.0,0.0,57,0.00,,,0.00,WUHU216HW,2013-07-18 02:54:00,
2013-07-17 19:59:00,73.3,57.0,30.13,North,0,0.0,0.0,57,0.00,,,0.00,WUHU216HW,2013-07-18 02:59:00,
2013-07-17 20:04:00,73.1,57.3,30.12,North,0,0.0,0.0,58,0.00,,,0.00,WUHU216HW,2013-07-18 03:04:00,
2013-07-17 20:09:00,72.9,57.2,30.13,North,0,0.0,0.0,58,0.00,,,0.00,WUHU216HW,2013-07-18 03:09:00,
2013-07-17 20:14:00,72.9,57.2,30.13,North,0,0.0,0.0,58,0.00,,,0.00,WUHU216HW,2013-07-18 03:14:00,
2013-07-17 20:19:00,72.7,57.1,30.13,North,0,0.0,0.0,58,0.00,,,0.00,WUHU216HW,2013-07-18 03:19:00,
2013-07-17 20:24:00,72.7,56.5,30.13,North,0,0.0,0.0,57,0.00,,,0.00,WUHU216HW,2013-07-18 03:24:00,
2013-07-17 20:29:00,72.4,56.7,30.14,North,0,0.0,0.0,58,0.00,,,0.00,WUHU216HW,2013-07-18 03:29:00,
2013-07-17 20:34:00,72.2,57.1,30.14,North,0,0.0,0.0,59,0.00,,,0.00,WUHU216HW,2013-07-18 03:34:00,
2013-07-17 20:39:00,72.0,56.9,30.14,North,0,0.0,0.0,59,0.00,,,0.00,WUHU216HW,2013-07-18 03:39:00,
2013-07-17 20:44:00,71.8,57.3,30.14,North,0,0.0,0.0,60,0.00,,,0.00,WUHU216HW,2013-07-18 03:44:00,
2013-07-17 20:49:00,71.6,57.1,30.15,North,0,0.0,0.0,60,0.00,,,0.00,WUHU216HW,2013-07-18 03:49:00,
2013-07-17 20:54:00,71.6,56.5,30.15,North,0,0.0,0.0,59,0.00,,,0.00,WUHU216HW,2013-07-18 03:54:00,
2013-07-17 20:59:00,71.6,56.5,30.14,North,0,0.0,0.0,59,0.00,,,0.00,WUHU216HW,2013-07-18 03:59:00,
2013-07-17 21:01:00,71.6,56.5,30.15,North,0,0.0,0.0,59,0.00,,,0.00,WUHU216HW,2013-07-18 04:01:00,
2013-07-17 21:07:00,71.6,56.5,30.14,North,0,0.0,0.0,59,0.00,,,0.00,WUHU216HW,2013-07-18 04:07:00,
2013-07-17 21:12:00,71.6,56.5,30.15,North,0,0.0,0.0,59,0.00,,,0.00,WUHU216HW,2013-07-18 04:12:00,
2013-07-17 21:17:00,71.6,56.5,30.15,North,0,0.0,0.0,59,0.00,,,0.00,WUHU216HW,2013-07-18 04:17:00,
2013-07-17 21:22:00,71.6,57.1,30.15,North,0,0.0,0.0,60,0.00,,,0.00,WUHU216HW,2013-07-18 04:22:00,
2013-07-17 21:28:00,71.6,57.1,30.15,North,0,0.0,0.0,60,0.00,,,0.00,WUHU216HW,2013-07-18 04:28:00,
2013-07-17 21:33:00,71.6,56.5,30.16,North,0,0.0,0.0,59,0.00,,,0.00,WUHU216HW,2013-07-18 04:33:00,
2013-07-17 21:38:00,71.6,56.5,30.16,North,0,0.0,0.0,59,0.00,,,0.00,WUHU216HW,2013-07-18 04:38:00,
2013-07-17 21:43:00,71.5,56.4,30.16,North,0,0.0,0.0,59,0.00,,,0.00,WUHU216HW,2013-07-18 04:43:00,
2013-07-17 21:48:00,71.3,56.3,30.16,North,0,0.0,0.0,59,0.00,,,0.00,WUHU216HW,2013-07-18 04:48:00,
2013-07-17 21:53:00,71.3,56.7,30.16,North,0,0.0,0.0,60,0.00,,,0.00,WUHU216HW,2013-07-18 04:53:00,
2013-07-17 21:58:00,71.1,56.6,30.16,North,0,0.0,0.0,60,0.00,,,0.00,WUHU216HW,2013-07-18 04:58:00,
2013-07-17 22:03:00,71.1,56.1,30.17,North,0,0.0,0.0,59,0.00,,,0.00,WUHU216HW,2013-07-18 05:03:00,
2013-07-17 22:08:00,71.1,56.6,30.16,North,0,0.0,0.0,60,0.00,,,0.00,WUHU216HW,2013-07-18 05:08:00,
2013-07-17 22:13:00,70.9,55.9,30.17,North,0,0.0,0.0,59,0.00,,,0.00,WUHU216HW,2013-07-18 05:13:00,
2013-07-17 22:18:00,70.9,55.9,30.17,North,0,0.0,0.0,59,0.00,,,0.00,WUHU216HW,2013-07-18 05:18:00,
2013-07-17 22:23:00,70.9,55.9,30.17,North,0,0.0,0.0,59,0.00,,,0.00,WUHU216HW,2013-07-18 05:23:00,
2013-07-17 22:28:00,70.7,55.7,30.17,North,0,0.0,0.0,59,0.00,,,0.00,WUHU216HW,2013-07-18 05:28:00,
2013-07-17 22:33:00,70.7,55.7,30.17,North,0,0.0,0.0,59,0.00,,,0.00,WUHU216HW,2013-07-18 05:33:00,
2013-07-17 22:38:00,70.6,55.6,30.17,North,0,0.0,0.0,59,0.00,,,0.00,WUHU216HW,2013-07-18 05:38:00,
2013-07-17 22:43:00,70.6,55.6,30.17,North,0,0.0,0.0,59,0.00,,,0.00,WUHU216HW,2013-07-18 05:43:00,
2013-07-17 22:48:00,70.6,55.6,30.17,North,0,0.0,0.0,59,0.00,,,0.00,WUHU216HW,2013-07-18 05:48:00,
2013-07-17 22:53:00,70.6,55.6,30.17,North,0,0.0,0.0,59,0.00,,,0.00,WUHU216HW,2013-07-18 05:53:00,
2013-07-17 22:58:00,70.6,55.6,30.17,North,0,0.0,0.0,59,0.00,,,0.00,WUHU216HW,2013-07-18 05:58:00,
2013-07-17 23:03:00,70.4,55.9,30.17,North,0,0.0,0.0,60,0.00,,,0.00,WUHU216HW,2013-07-18 06:03:00,
2013-07-17 23:08:00,70.4,55.9,30.17,North,0,0.0,0.0,60,0.00,,,0.00,WUHU216HW,2013-07-18 06:08:00,
2013-07-17 23:13:00,70.4,56.3,30.16,North,0,0.0,0.0,61,0.00,,,0.00,WUHU216HW,2013-07-18 06:13:00,
2013-07-17 23:18:00,70.2,56.2,30.16,North,0,0.0,0.0,61,0.00,,,0.00,WUHU216HW,2013-07-18 06:18:00,
2013-07-17 23:23:00,70.2,56.6,30.16,North,0,0.0,0.0,62,0.00,,,0.00,WUHU216HW,2013-07-18 06:23:00,
2013-07-17 23:28:00,70.2,56.6,30.16,North,0,0.0,0.0,62,0.00,,,0.00,WUHU216HW,2013-07-18 06:28:00,
2013-07-17 23:33:00,70.2,56.6,30.16,North,0,0.0,0.0,62,0.00,,,0.00,WUHU216HW,2013-07-18 06:33:00,
2013-07-17 23:38:00,70.0,56.9,30.16,North,0,0.0,0.0,63,0.00,,,0.00,WUHU216HW,2013-07-18 06:38:00,
2013-07-17 23:43:00,70.0,56.9,30.16,North,0,0.0,0.0,63,0.00,,,0.00,WUHU216HW,2013-07-18 06:43:00,
2013-07-17 23:48:00,69.8,56.7,30.16,North,0,0.0,0.0,63,0.00,,,0.00,WUHU216HW,2013-07-18 06:48:00,
2013-07-17 23:53:00,69.8,57.1,30.16,North,0,0.0,0.0,64,0.00,,,0.00,WUHU216HW,2013-07-18 06:53:00,
2013-07-17 23:58:00,69.8,57.1,30.16,North,0,0.0,0.0,64,0.00,,,0.00,WUHU216HW,2013-07-18 06:58:00,